| time (UTC) | temp C | wind direction | speed KPH | gust KPH | rain 1hr cm | rain 24hr cm | rain mn cm | humidity % | barometer mb |
| 20260504050738 | 7 | 147 | 0.0 | 1.6 | 0.00 | 0.08 | 0.08 | 99 | 1008.4 |
| 20260504050235 | 7 | 161 | 0.0 | 1.6 | 0.00 | 0.08 | 0.08 | 99 | 1008.5 |
| 20260504045732 | 7 | 157 | 1.6 | 1.6 | 0.00 | 0.08 | 0.08 | 99 | 1008.5 |
| 20260504045227 | 7 | 152 | 0.0 | 1.6 | 0.18 | 0.08 | 0.08 | 99 | 1008.3 |
| 20260504044725 | 7 | 121 | 0.0 | 1.6 | 0.18 | 0.08 | 0.08 | 99 | 1008.5 |
| 20260504044222 | 7 | 158 | 1.6 | 3.2 | 0.00 | 0.05 | 0.05 | 99 | 1008.7 |
| 20260504043720 | 7 | 164 | 3.2 | 3.2 | 0.13 | 0.05 | 0.05 | 99 | 1008.6 |
| 20260504043216 | 7 | 135 | 1.6 | 1.6 | 0.13 | 0.05 | 0.05 | 99 | 1008.3 |
| 20260504042714 | 7 | 152 | 1.6 | 1.6 | 0.18 | 0.03 | 0.03 | 99 | 1008.9 |
| 20260504042210 | 7 | 153 | 1.6 | 1.6 | 0.18 | 0.03 | 0.03 | 98 | 1009.0 |
| 20260504041706 | 7 | 141 | 3.2 | 4.8 | 0.18 | 0.03 | 0.03 | 98 | 1009.2 |
| 20260504041202 | 7 | 177 | 3.2 | 3.2 | 0.00 | 0.00 | 0.00 | 98 | 1009.3 |
| 20260504040659 | 7 | 172 | 0.0 | 1.6 | 0.00 | 0.00 | 0.00 | 98 | 1009.3 |
| 20260504040156 | 7 | 159 | 1.6 | 1.6 | 0.00 | 0.00 | 0.00 | 98 | 1009.3 |
| 20260504035652 | 7 | 164 | 1.6 | 1.6 | 0.00 | 0.15 | 0.15 | 98 | 1009.1 |
| 20260504035150 | 7 | 172 | 1.6 | 1.6 | 0.00 | 0.15 | 0.15 | 98 | 1009.1 |
| 20260504034647 | 7 | 155 | 1.6 | 1.6 | 0.13 | 0.15 | 0.15 | 98 | 1009.1 |
| 20260504034144 | 7 | 164 | 0.0 | 1.6 | 0.13 | 0.15 | 0.15 | 97 | 1009.1 |
| 20260504033642 | 7 | 173 | 3.2 | 4.8 | 0.00 | 0.13 | 0.13 | 97 | 1009.0 |
| 20260504033139 | 7 | 162 | 1.6 | 1.6 | 0.00 | 0.13 | 0.13 | 97 | 1009.1 |
| 20260504032635 | 7 | 162 | 0.0 | 1.6 | 0.00 | 0.13 | 0.13 | 96 | 1009.2 |
| 20260504032132 | 7 | 159 | 0.0 | 0.0 | 0.00 | 0.13 | 0.13 | 96 | 1009.0 |
| 20260504031630 | 7 | 167 | 1.6 | 1.6 | 0.00 | 0.13 | 0.13 | 96 | 1008.9 |
| 20260504031126 | 7 | 167 | 1.6 | 1.6 | 0.00 | 0.13 | 0.13 | 96 | 1008.9 |
| 20260504030623 | 7 | 159 | 1.6 | 1.6 | 0.00 | 0.13 | 0.13 | 96 | 1008.9 |
| 20260504030120 | 7 | 160 | 0.0 | 0.0 | 0.00 | 0.13 | 0.13 | 96 | 1008.9 |
| 20260504025616 | 7 | 155 | 0.0 | 1.6 | 0.00 | 0.13 | 0.13 | 96 | 1009.1 |
| 20260504025113 | 7 | 147 | 0.0 | 1.6 | 0.00 | 0.13 | 0.13 | 97 | 1009.0 |
| 20260504024611 | 7 | 158 | 0.0 | 0.0 | 0.00 | 0.13 | 0.13 | 96 | 1009.2 |
| 20260504024107 | 7 | 162 | 0.0 | 1.6 | 0.00 | 0.13 | 0.13 | 96 | 1009.2 |
| 20260504023603 | 7 | 155 | 0.0 | 0.0 | 0.00 | 0.13 | 0.13 | 97 | 1009.2 |
| 20260504023059 | 7 | 163 | 0.0 | 1.6 | 0.00 | 0.13 | 0.13 | 96 | 1009.3 |
| 20260504022556 | 7 | 182 | 1.6 | 1.6 | 0.00 | 0.13 | 0.13 | 96 | 1009.3 |
| 20260504022052 | 7 | 166 | 1.6 | 1.6 | 0.00 | 0.13 | 0.13 | 96 | 1009.5 |
| 20260504021550 | 7 | 154 | 1.6 | 1.6 | 0.18 | 0.13 | 0.13 | 95 | 1009.3 |
| 20260504021046 | 7 | 158 | 1.6 | 3.2 | 0.18 | 0.13 | 0.13 | 95 | 1009.6 |
| 20260504020543 | 7 | 186 | 1.6 | 3.2 | 0.18 | 0.13 | 0.13 | 95 | 1009.6 |
| 20260504020040 | 7 | 101 | 0.0 | 1.6 | 0.13 | 0.10 | 0.10 | 94 | 1009.6 |
| 20260504015536 | 7 | 143 | 0.0 | 0.0 | 0.13 | 0.10 | 0.10 | 93 | 1009.6 |
| 20260504015032 | 7 | 161 | 1.6 | 1.6 | 0.18 | 0.08 | 0.08 | 92 | 1009.8 |
| 20260504014529 | 7 | 160 | 3.2 | 3.2 | 0.30 | 0.08 | 0.08 | 90 | 1009.7 |
| 20260504014026 | 7 | 155 | 0.0 | 0.0 | 0.13 | 0.05 | 0.05 | 88 | 1009.8 |
| 20260504013524 | 7 | 169 | 1.6 | 1.6 | 0.18 | 0.03 | 0.03 | 86 | 1009.6 |
| 20260504013020 | 7 | 149 | 1.6 | 1.6 | 0.18 | 0.03 | 0.03 | 84 | 1009.7 |
| 20260504012518 | 7 | 195 | 3.2 | 3.2 | 0.00 | 0.00 | 0.00 | 83 | 1009.5 |
| 20260504012016 | 7 | 157 | 1.6 | 1.6 | 0.00 | 0.00 | 0.00 | 81 | 1009.7 |
| 20260504011512 | 8 | 176 | 3.2 | 3.2 | 0.00 | 0.00 | 0.00 | 80 | 1009.4 |
| 20260504011008 | 7 | 172 | 1.6 | 3.2 | 0.00 | 0.00 | 0.00 | 78 | 1009.3 |
| 20260504010504 | 7 | 173 | 3.2 | 3.2 | 0.00 | 0.00 | 0.00 | 76 | 1009.3 |
| 20260504010000 | 8 | 175 | 1.6 | 1.6 | 0.00 | 0.00 | 0.00 | 72 | 1009.2 |
| 20260504005457 | 8 | 161 | 0.0 | 1.6 | 0.00 | 0.00 | 0.00 | 71 | 1009.1 |
| 20260504004954 | 8 | 148 | 0.0 | 1.6 | 0.00 | 0.00 | 0.00 | 68 | 1009.0 |
| 20260504004452 | 8 | 158 | 1.6 | 1.6 | 0.00 | 0.00 | 0.00 | 64 | 1008.9 |
| 20260504003949 | 8 | 162 | 1.6 | 1.6 | 0.00 | 0.00 | 0.00 | 63 | 1009.2 |
| 20260504003445 | 8 | 158 | 1.6 | 3.2 | 0.00 | 0.00 | 0.00 | 62 | 1009.1 |
| 20260504002942 | 8 | 149 | 0.0 | 1.6 | 0.00 | 0.00 | 0.00 | 61 | 1009.0 |
| 20260504002439 | 8 | 154 | 0.0 | 0.0 | 0.00 | 0.00 | 0.00 | 61 | 1008.8 |
| 20260504001936 | 8 | 146 | 1.6 | 1.6 | 0.00 | 0.00 | 0.00 | 58 | 1008.9 |
| 20260504001433 | 8 | 144 | 1.6 | 1.6 | 0.00 | 0.00 | 0.00 | 59 | 1008.9 |
| 20260504000930 | 8 | 156 | 0.0 | 0.0 | 0.00 | 0.00 | 0.00 | 60 | 1008.9 |
| 20260504000427 | 8 | 160 | 1.6 | 1.6 | 0.00 | 0.00 | 0.00 | 58 | 1009.0 |
| 20260503235924 | 8 | 167 | 1.6 | 1.6 | 0.00 | 0.00 | 0.00 | 57 | 1009.1 |
| 20260503235422 | 8 | 137 | 1.6 | 1.6 | 0.00 | 0.00 | 0.00 | 59 | 1008.9 |
| 20260503234919 | 8 | 163 | 1.6 | 1.6 | 0.00 | 0.00 | 0.00 | 58 | 1009.2 |
| 20260503234417 | 8 | 160 | 1.6 | 3.2 | 0.00 | 0.00 | 0.00 | 56 | 1008.9 |
| 20260503233915 | 8 | 164 | 0.0 | 1.6 | 0.00 | 0.00 | 0.00 | 56 | 1009.2 |
| 20260503233411 | 8 | 163 | 1.6 | 1.6 | 0.00 | 0.00 | 0.00 | 55 | 1009.1 |
| 20260503232907 | 9 | 186 | 4.8 | 4.8 | 0.00 | 0.00 | 0.00 | 51 | 1009.3 |
| 20260503232405 | 9 | 163 | 1.6 | 3.2 | 0.00 | 0.00 | 0.00 | 50 | 1009.4 |
| 20260503231902 | 9 | 155 | 0.0 | 0.0 | 0.00 | 0.00 | 0.00 | 57 | 1009.5 |
| 20260503231359 | 9 | 162 | 0.0 | 0.0 | 0.00 | 0.00 | 0.00 | 56 | 1009.5 |
| 20260503230855 | 9 | 156 | 0.0 | 1.6 | 0.00 | 0.00 | 0.00 | 53 | 1009.5 |
| 20260503230352 | 9 | 158 | 0.0 | 1.6 | 0.00 | 0.00 | 0.00 | 52 | 1009.4 |
| 20260503225850 | 9 | 158 | 0.0 | 1.6 | 0.00 | 0.00 | 0.00 | 53 | 1009.5 |
| 20260503225346 | 9 | 159 | 0.0 | 0.0 | 0.00 | 0.00 | 0.00 | 50 | 1009.2 |
| 20260503224842 | 9 | 158 | 0.0 | 0.0 | 0.00 | 0.00 | 0.00 | 52 | 1009.5 |
| 20260503224339 | 9 | 155 | 3.2 | 3.2 | 0.00 | 0.00 | 0.00 | 51 | 1009.3 |
| 20260503223837 | 9 | 179 | 3.2 | 3.2 | 0.00 | 0.00 | 0.00 | 52 | 1009.6 |
| 20260503223335 | 9 | 155 | 0.0 | 0.0 | 0.00 | 0.00 | 0.00 | 53 | 1009.6 |
| 20260503222830 | 9 | 162 | 1.6 | 1.6 | 0.00 | 0.00 | 0.00 | 51 | 1009.3 |
| 20260503222329 | 9 | 175 | 1.6 | 3.2 | 0.00 | 0.00 | 0.00 | 53 | 1009.6 |
| 20260503221826 | 10 | 170 | 1.6 | 1.6 | 0.00 | 0.00 | 0.00 | 54 | 1009.6 |
| 20260503221325 | 10 | 197 | 3.2 | 3.2 | 0.00 | 0.00 | 0.00 | 52 | 1009.4 |
| 20260503220820 | 10 | 155 | 1.6 | 1.6 | 0.00 | 0.00 | 0.00 | 50 | 1009.5 |
| 20260503220318 | 10 | 185 | 0.0 | 1.6 | 0.00 | 0.00 | 0.00 | 52 | 1009.4 |
| 20260503215814 | 10 | 216 | 3.2 | 4.8 | 0.00 | 0.00 | 0.00 | 52 | 1009.6 |
| 20260503215312 | 10 | 180 | 4.8 | 4.8 | 0.00 | 0.00 | 0.00 | 49 | 1009.4 |
| 20260503214810 | 10 | 239 | 3.2 | 4.8 | 0.00 | 0.00 | 0.00 | 50 | 1009.5 |
| 20260503214306 | 10 | 150 | 3.2 | 4.8 | 0.00 | 0.00 | 0.00 | 49 | 1009.6 |
| 20260503213804 | 10 | 231 | 4.8 | 8.0 | 0.00 | 0.00 | 0.00 | 46 | 1009.6 |
| 20260503213301 | 10 | 252 | 3.2 | 4.8 | 0.00 | 0.00 | 0.00 | 50 | 1009.6 |
| 20260503212758 | 10 | 159 | 1.6 | 1.6 | 0.00 | 0.00 | 0.00 | 50 | 1009.8 |
| 20260503212256 | 10 | 141 | 1.6 | 1.6 | 0.00 | 0.00 | 0.00 | 47 | 1009.6 |
| 20260503211753 | 10 | 243 | 4.8 | 11.3 | 0.00 | 0.00 | 0.00 | 44 | 1009.6 |
| 20260503211249 | 11 | 197 | 4.8 | 4.8 | 0.00 | 0.00 | 0.00 | 43 | 1009.4 |
| 20260503210744 | 10 | 285 | 8.0 | 11.3 | 0.00 | 0.00 | 0.00 | 46 | 1009.6 |
| 20260503210242 | 11 | 177 | 3.2 | 3.2 | 0.00 | 0.00 | 0.00 | 48 | 1009.6 |
| 20260503205742 | 10 | 156 | 3.2 | 4.8 | 0.00 | 0.00 | 0.00 | 49 | 1009.8 |
| 20260503205239 | 10 | 194 | 0.0 | 1.6 | 0.00 | 0.00 | 0.00 | 50 | 1009.9 |
| 20260503204735 | 10 | 184 | 1.6 | 1.6 | 0.00 | 0.00 | 0.00 | 52 | 1009.9 |
| 20260503204233 | 11 | 284 | 6.4 | 9.7 | 0.00 | 0.00 | 0.00 | 52 | 1009.9 |
| 20260503203730 | 11 | 180 | 3.2 | 8.0 | 0.00 | 0.00 | 0.00 | 56 | 1009.9 |
| 20260503203228 | 10 | 157 | 8.0 | 11.3 | 0.00 | 0.00 | 0.00 | 57 | 1010.1 |
| 20260503202725 | 9 | 194 | 4.8 | 8.0 | 0.00 | 0.00 | 0.00 | 61 | 1010.1 |
| 20260503202223 | 10 | 189 | 1.6 | 3.2 | 0.00 | 0.00 | 0.00 | 61 | 1010.2 |
| 20260503201720 | 8 | 158 | 0.0 | 0.0 | 0.00 | 0.00 | 0.00 | 63 | 1010.3 |
| 20260503201218 | 9 | 271 | 12.9 | 14.5 | 0.00 | 0.00 | 0.00 | 60 | 1010.4 |
| 20260503200714 | 8 | 286 | 6.4 | 9.7 | 0.00 | 0.00 | 0.00 | 60 | 1010.4 |
| 20260503200210 | 9 | 218 | 11.3 | 14.5 | 0.00 | 0.00 | 0.00 | 57 | 1010.4 |
| 20260503195707 | 9 | 204 | 4.8 | 8.0 | 0.00 | 0.00 | 0.00 | 55 | 1010.3 |
| 20260503195204 | 10 | 218 | 6.4 | 8.0 | 0.00 | 0.00 | 0.00 | 53 | 1010.5 |
| 20260503194701 | 10 | 187 | 6.4 | 9.7 | 0.00 | 0.00 | 0.00 | 50 | 1010.7 |
| 20260503194156 | 9 | 226 | 6.4 | 9.7 | 0.00 | 0.00 | 0.00 | 50 | 1010.7 |
| 20260503193654 | 10 | 296 | 9.7 | 14.5 | 0.00 | 0.00 | 0.00 | 48 | 1010.6 |
| 20260503193149 | 11 | 217 | 6.4 | 11.3 | 0.00 | 0.00 | 0.00 | 46 | 1010.8 |
| 20260503192645 | 9 | 242 | 9.7 | 11.3 | 0.00 | 0.00 | 0.00 | 47 | 1010.8 |
| 20260503192141 | 9 | 191 | 12.9 | 20.9 | 0.00 | 0.00 | 0.00 | 46 | 1010.8 |
| 20260503191638 | 10 | 235 | 3.2 | 4.8 | 0.00 | 0.00 | 0.00 | 47 | 1011.0 |
| 20260503191135 | 9 | 303 | 9.7 | 12.9 | 0.00 | 0.00 | 0.00 | 48 | 1010.9 |
| 20260503190632 | 10 | 196 | 3.2 | 4.8 | 0.00 | 0.00 | 0.00 | 48 | 1011.1 |
| 20260503190129 | 10 | 183 | 4.8 | 8.0 | 0.00 | 0.00 | 0.00 | 48 | 1011.0 |
| 20260503185625 | 10 | 175 | 4.8 | 4.8 | 0.00 | 0.00 | 0.00 | 48 | 1011.3 |
| 20260503185120 | 9 | 111 | 3.2 | 3.2 | 0.00 | 0.00 | 0.00 | 48 | 1011.2 |
| 20260503184615 | 10 | 147 | 3.2 | 4.8 | 0.00 | 0.00 | 0.00 | 46 | 1011.2 |
| 20260503184112 | 10 | 155 | 1.6 | 3.2 | 0.00 | 0.00 | 0.00 | 47 | 1011.3 |
| 20260503183609 | 10 | 233 | 6.4 | 12.9 | 0.00 | 0.00 | 0.00 | 46 | 1011.4 |
| 20260503183106 | 10 | 144 | 4.8 | 4.8 | 0.00 | 0.00 | 0.00 | 50 | 1011.4 |
| 20260503182605 | 10 | 130 | 9.7 | 12.9 | 0.00 | 0.00 | 0.00 | 47 | 1011.6 |
| 20260503182102 | 10 | 183 | 4.8 | 4.8 | 0.00 | 0.00 | 0.00 | 50 | 1011.9 |
| 20260503181559 | 8 | 152 | 6.4 | 8.0 | 0.00 | 0.00 | 0.00 | 50 | 1011.8 |
| 20260503181055 | 8 | 238 | 9.7 | 14.5 | 0.00 | 0.00 | 0.00 | 51 | 1011.6 |
| 20260503180553 | 9 | 153 | 4.8 | 8.0 | 0.00 | 0.00 | 0.00 | 48 | 1011.8 |
| 20260503180050 | 9 | 197 | 4.8 | 8.0 | 0.00 | 0.00 | 0.00 | 49 | 1011.7 |
| 20260503175547 | 8 | 226 | 6.4 | 9.7 | 0.00 | 0.00 | 0.00 | 47 | 1011.5 |
| 20260503175045 | 9 | 241 | 4.8 | 9.7 | 0.00 | 0.00 | 0.00 | 51 | 1011.7 |
| 20260503174542 | 8 | 259 | 4.8 | 8.0 | 0.00 | 0.00 | 0.00 | 55 | 1011.5 |
| 20260503174038 | 9 | 175 | 11.3 | 14.5 | 0.00 | 0.00 | 0.00 | 53 | 1011.8 |
| 20260503173533 | 9 | 156 | 1.6 | 3.2 | 0.00 | 0.00 | 0.00 | 54 | 1011.7 |
| 20260503173029 | 9 | 204 | 6.4 | 8.0 | 0.00 | 0.00 | 0.00 | 55 | 1011.6 |
| 20260503172527 | 9 | 343 | 4.8 | 8.0 | 0.00 | 0.00 | 0.00 | 53 | 1011.9 |
| 20260503172024 | 9 | 231 | 4.8 | 4.8 | 0.00 | 0.00 | 0.00 | 54 | 1011.8 |
| 20260503171520 | 8 | 156 | 3.2 | 3.2 | 0.00 | 0.00 | 0.00 | 53 | 1012.0 |
| 20260503171018 | 9 | 221 | 11.3 | 14.5 | 0.00 | 0.00 | 0.00 | 52 | 1011.9 |
| 20260503170514 | 9 | 221 | 4.8 | 8.0 | 0.00 | 0.00 | 0.00 | 54 | 1012.0 |
| 20260503150907 | 7 | 280 | 6.4 | 12.9 | 0.00 | 0.00 | 0.00 | 66 | 1013.3 |
| 20260503150403 | 6 | 288 | 11.3 | 16.1 | 0.00 | 0.00 | 0.00 | 63 | 1013.5 |
| 20260503131256 | 6 | 301 | 6.4 | 8.0 | 0.00 | 0.00 | 0.00 | 57 | 1013.4 |
| 20260503130754 | 6 | 297 | 8.0 | 9.7 | 0.00 | 0.00 | 0.00 | 57 | 1013.6 |
| 20260503130251 | 6 | 323 | 6.4 | 9.7 | 0.00 | 0.00 | 0.00 | 58 | 1013.3 |
| 20260503120217 | 5 | 141 | 0.0 | 0.0 | 0.00 | 0.00 | 0.00 | 68 | 1013.2 |
| 20260503110644 | 5 | 170 | 1.6 | 1.6 | 0.00 | 0.00 | 0.00 | 72 | 1013.0 |
| 20260503110142 | 4 | 192 | 1.6 | 1.6 | 0.00 | 0.00 | 0.00 | 73 | 1012.8 |
| 20260503100109 | 4 | 181 | 1.6 | 1.6 | 0.00 | 0.00 | 0.00 | 78 | 1012.5 |
| 20260503081458 | 5 | 187 | 1.6 | 3.2 | 0.00 | 0.00 | 0.00 | 79 | 1012.9 |
| 20260503080955 | 5 | 202 | 3.2 | 3.2 | 0.00 | 0.00 | 0.00 | 78 | 1012.9 |
| 20260503080451 | 5 | 146 | 1.6 | 3.2 | 0.00 | 0.00 | 0.00 | 79 | 1012.9 |
| 20260503072922 | 5 | 155 | 0.0 | 0.0 | 0.00 | 0.00 | 0.00 | 82 | 1012.8 |
| 20260503072419 | 5 | 330 | 3.2 | 3.2 | 0.00 | 0.00 | 0.00 | 81 | 1012.9 |
| 20260503071916 | 5 | 183 | 0.0 | 1.6 | 0.00 | 0.00 | 0.00 | 81 | 1012.9 |
| 20260503071413 | 5 | 156 | 1.6 | 3.2 | 0.00 | 0.00 | 0.00 | 82 | 1012.9 |
| 20260503070909 | 5 | 177 | 0.0 | 1.6 | 0.00 | 0.00 | 0.00 | 83 | 1012.9 |
| 20260503070407 | 5 | 341 | 1.6 | 3.2 | 0.00 | 0.00 | 0.00 | 83 | 1012.6 |
| 20260503060332 | 5 | 290 | 3.2 | 3.2 | 0.00 | 0.00 | 0.00 | 82 | 1013.0 |
| 20260503054820 | 5 | 164 | 0.0 | 1.6 | 0.00 | 0.00 | 0.00 | 81 | 1013.1 |